sat.trackr.live / text

‹ back to catalog

STARLINK-34729

NORAD 65364 · 2025-190P

PAYLOAD ACTIVE UNKNOWN

§ Identity

Operator
Country
US
Launch date
2025-08-28
Launch site
AFETR
Launch vehicle
Mass (kg)
RCS (m²)

Purposes: comms

External: N2YO · Heavens-Above · Gunter

§ Orbital elements

Epoch: 2026-05-24T12:06:38.893248Z

Period
94.11 min
Inclination
53.1576°
Eccentricity
0.0001092
Mean motion
15.30202183 rev/d
Perigee alt
474.5 km
Apogee alt
476.0 km
Semi-major
6,853.3 km
B*
-1.0263e-5
RAAN
175.9667°
Arg perigee
86.4068°
Mean anomaly
273.7057°
Rev number
4,178

§ Raw data

STARLINK-347291 65364U 25190P   26144.50461682 -.00000663  00000+0 -10263-4 0  99922 65364  53.1576 175.9667 0001092  86.4068 273.7057 15.30202183 41784

JSON: /api/v1/satellites/65364 · /tle

For live sub-satellite position, see the globe view (requires WebGL).

§ Visibility from observer

Set your observer location to see the next 7 days of passes ≥ 10°. The values pass through the URL so the page stays shareable.

No JS? Fill the form by hand. The geolocation button needs JavaScript.